time_stamp(utc),avg(mph),gust(mph),direction(deg),12m_air_temp(f),sonic_u(cm/s),sonic_v(cm/s),sonic_w(cm/s),pressure,2m_air_temp(f),pyranometer(W/m^2)
"2019-11-09 00:02:54+00",12.7,14.7,,34.9,-166,569,-7,1023.89,34.2,0
"2019-11-09 00:07:54+00",12.3,15.3,,34.9,-238,700,-60,1023.96,34,0
"2019-11-09 00:12:54+00",12.6,15.6,,34.8,-291,764,-129,1023.88,34,0
"2019-11-09 00:17:54+00",11.9,14.9,,34.6,-268,733,-110,1023.94,33.8,0
"2019-11-09 00:22:54+00",13.2,14.2,,34.4,-134,511,56,1024.03,33.7,0
"2019-11-09 00:27:54+00",12.3,14.3,,34.3,-168,582,-17,1024.16,33.5,0
"2019-11-09 00:32:54+00",11.3,14.3,,34.1,-142,463,47,1024.23,33.4,0
"2019-11-09 00:37:54+00",10.3,13.3,,34,-168,455,47,1024.21,33.3,0
"2019-11-09 00:42:54+00",12.7,14.7,,34.1,-107,425,103,1024.22,33.3,0
"2019-11-09 00:47:54+00",12.9,14.9,,34,-187,691,-79,1024.4,33.2,0
"2019-11-09 00:52:54+00",14.1,16.1,,33.8,-129,554,37,1024.45,33,0
"2019-11-09 00:57:54+00",12.7,15.7,,33.6,-188,612,-12,1024.52,32.9,0
"2019-11-09 01:02:54+00",10.8,12.8,,33.4,-131,512,16,1024.57,32.7,0
"2019-11-09 01:07:54+00",11.0,13.0,,33.3,-104,506,12,1024.57,32.6,0
"2019-11-09 01:12:54+00",10.9,12.9,,33.3,-175,617,-49,1024.71,32.4,0
"2019-11-09 01:17:54+00",9.7,12.7,,33.3,-204,637,-92,1024.76,32.3,0
"2019-11-09 01:22:54+00",13.1,16.1,,33.2,-159,655,-28,1024.87,32.3,0
"2019-11-09 01:27:54+00",12.3,15.3,,33.2,-183,648,-21,1024.79,32.3,0
"2019-11-09 01:32:54+00",13.3,15.3,,33.1,-143,624,10,1024.89,32.3,0
"2019-11-09 01:37:54+00",14.3,16.3,,33,-193,765,-86,1024.84,32.2,0
"2019-11-09 01:42:54+00",11.1,12.1,,33,-136,498,18,1025.01,32.1,0
"2019-11-09 01:47:54+00",14.0,15.0,,32.9,-148,667,-29,1025.1,32,0
"2019-11-09 01:52:54+00",14.2,17.2,,32.8,-236,760,-51,1025.1,32,0
"2019-11-09 01:57:54+00",14.5,16.5,,32.8,-237,842,-117,1025.12,31.9,0
"2019-11-09 02:02:54+00",15.2,19.2,,32.8,-177,770,-58,1025.16,31.9,0
"2019-11-09 02:07:54+00",10.9,14.9,,32.7,-116,393,82,1025.22,31.9,0
"2019-11-09 02:12:54+00",10.8,13.8,,32.6,-106,517,15,1025.33,31.8,0
"2019-11-09 02:17:54+00",12.5,15.5,,32.6,-160,691,-57,1025.31,31.6,0
"2019-11-09 02:22:54+00",12.8,15.8,,32.5,-133,595,10,1025.33,31.6,0
"2019-11-09 02:27:54+00",11.6,13.6,,32.4,-124,600,-27,1025.44,31.5,0
"2019-11-09 02:32:54+00",13.1,15.1,,32.2,-144,715,-79,1025.48,31.3,0
"2019-11-09 02:37:54+00",12.3,13.3,,32.2,-79,541,32,1025.47,31.2,0
"2019-11-09 02:42:54+00",11.9,12.9,,31.9,-32,473,67,1025.57,31.1,0
"2019-11-09 02:47:54+00",10.1,12.1,,31.7,-23,410,58,1025.69,31,0
"2019-11-09 02:52:54+00",11.5,13.5,,31.6,8,379,106,1025.69,30.7,0
"2019-11-09 02:57:54+00",10.7,13.7,,31.5,161,77,269,1025.79,30.6,0
"2019-11-09 03:02:54+00",13.2,16.2,,31.5,-184,855,-145,1025.81,30.4,0
"2019-11-09 03:07:54+00",11.9,14.9,,31.7,-172,857,-171,1025.87,30.5,0
"2019-11-09 03:12:54+00",10.0,12.0,,31.6,-6,382,82,1025.85,30.4,0
"2019-11-09 03:17:54+00",11.2,13.2,,31.6,-50,444,71,1025.82,30.4,0
"2019-11-09 03:22:54+00",11.2,12.2,,31.6,-58,493,43,1025.83,30.4,0
"2019-11-09 03:27:54+00",13.1,16.1,,31.4,17,435,144,1025.92,30.3,0
"2019-11-09 03:32:54+00",9.8,11.8,,31.2,-32,402,76,1025.85,30.2,0
"2019-11-09 03:37:54+00",10.1,12.1,,31.2,-29,371,96,1025.93,30,0
"2019-11-09 03:42:54+00",10.0,13.0,,31.1,-43,398,75,1025.97,30,0
"2019-11-09 03:47:54+00",8.9,9.9,,31,26,387,44,1025.95,29.8,0
"2019-11-09 03:52:54+00",8.2,10.2,,30.8,4,374,39,1025.99,29.6,0
"2019-11-09 03:57:54+00",8.5,10.5,,30.7,-31,356,56,1025.93,29.4,0
"2019-11-09 04:02:54+00",7.1,8.1,,30.4,41,274,62,1025.98,29.3,0
"2019-11-09 04:07:54+00",10.7,12.7,,30.4,-103,727,-134,1025.91,29.1,0
"2019-11-09 04:12:54+00",10.1,12.1,,30.4,-28,541,-18,1026.09,29,0
"2019-11-09 04:17:54+00",9.6,11.6,,30.3,-15,466,17,1026.04,28.9,0
"2019-11-09 04:22:54+00",8.0,9.0,,30.1,14,319,80,1025.87,28.8,0
"2019-11-09 04:27:54+00",9.1,11.1,,30,21,364,52,1025.94,28.7,0
"2019-11-09 04:32:54+00",10.2,12.2,,30,-15,441,44,1025.9,28.6,0
"2019-11-09 04:37:54+00",11.7,13.7,,30.1,-4,380,122,1025.81,28.6,0
"2019-11-09 04:42:54+00",11.0,12.0,,30,-8,449,51,1025.87,28.6,0
"2019-11-09 04:47:54+00",10.6,14.6,,29.8,10,393,49,1025.92,28.5,0
"2019-11-09 04:52:54+00",8.8,9.8,,29.6,36,430,24,1025.84,28.5,0
"2019-11-09 04:57:54+00",10.8,14.8,,29.6,18,498,35,1025.86,28.3,0
"2019-11-09 05:02:54+00",10.1,12.1,,29.6,57,368,69,1025.89,28.2,0
"2019-11-09 05:07:54+00",9.6,12.6,,29.6,0,439,22,1025.9,28.2,0
"2019-11-09 05:12:54+00",10.3,12.3,,29.6,31,328,125,1025.83,28.1,0
"2019-11-09 05:17:54+00",10.9,11.9,,29.5,-52,353,120,1025.68,28.2,0
"2019-11-09 05:22:54+00",9.4,11.4,,29.3,18,332,81,1025.74,28.3,0
"2019-11-09 05:27:54+00",11.4,14.4,,29.3,19,369,99,1025.65,28.1,0
"2019-11-09 05:32:54+00",11.3,13.3,,29.1,-64,419,67,1025.62,28,0
"2019-11-09 05:37:54+00",11.0,13.0,,28.7,-6,204,199,1025.57,27.9,0
"2019-11-09 05:42:54+00",10.9,12.9,,28.5,-78,428,52,1025.66,27.7,0
"2019-11-09 05:47:54+00",10.2,11.2,,28.4,-18,363,65,1025.62,27.6,0
"2019-11-09 05:52:54+00",10.7,11.7,,28.2,17,218,163,1025.59,27.4,0
"2019-11-09 05:57:54+00",8.9,10.9,,28.3,4,313,66,1025.8,27.3,0
"2019-11-09 06:02:54+00",10.4,12.4,,28.6,24,453,22,1025.75,27.3,0
"2019-11-09 06:07:54+00",11.6,12.6,,29.1,84,282,162,1025.68,27.5,0
"2019-11-09 06:12:54+00",9.1,11.1,,29.2,92,174,183,1025.85,27.7,0
"2019-11-09 06:17:54+00",10.9,12.9,,29.1,15,452,41,1025.81,27.8,0
"2019-11-09 06:22:54+00",12.2,14.2,,29.1,-3,560,10,1025.71,27.8,0
"2019-11-09 06:27:54+00",8.9,9.9,,29,46,264,106,1025.79,27.8,0
"2019-11-09 06:32:54+00",9.8,11.8,,28.9,35,364,84,1025.89,27.8,0
"2019-11-09 06:37:54+00",11.6,12.6,,28.9,-7,424,47,1025.76,27.7,0
"2019-11-09 06:42:54+00",9.9,11.9,,28.8,26,347,90,1025.8,27.6,0
"2019-11-09 06:47:54+00",6.9,8.9,,28.6,-6,171,114,1025.83,27.6,0
"2019-11-09 06:52:54+00",9.1,11.1,,28.5,65,223,131,1025.68,27.5,0
"2019-11-09 06:57:54+00",9.8,11.8,,28.4,29,341,69,1025.64,27.3,0
"2019-11-09 07:02:54+00",8.3,10.3,,28.4,63,187,109,1025.57,27.2,0
"2019-11-09 07:07:54+00",6.2,7.2,,28.3,63,129,114,1025.61,27.2,0
"2019-11-09 07:12:54+00",13.7,15.7,,28.5,-127,870,-167,1025.62,27.2,0
"2019-11-09 07:17:54+00",13.1,16.1,,28.6,117,264,202,1025.41,27.2,0
"2019-11-09 07:22:54+00",10.4,13.4,,28.6,54,340,118,1025.46,27.4,0
"2019-11-09 07:27:54+00",11.3,13.3,,28.4,61,508,9,1025.48,27.3,0
"2019-11-09 07:32:54+00",11.9,13.9,,28.2,72,313,150,1025.26,27.2,0
"2019-11-09 07:37:54+00",11.0,12.0,,28.3,94,289,139,1025.23,27.1,0
"2019-11-09 07:42:54+00",11.8,14.8,,28.1,57,405,84,1025.27,27.1,0
"2019-11-09 07:47:54+00",9.8,11.8,,27.9,42,371,62,1025.35,27,0
"2019-11-09 07:52:54+00",11.3,13.3,,27.9,45,407,89,1025.23,26.9,0
"2019-11-09 07:57:54+00",13.4,15.4,,28,-31,683,-51,1025.12,26.9,0
"2019-11-09 08:02:54+00",13.6,15.6,,28,26,637,-18,1025.03,26.9,0
"2019-11-09 08:07:54+00",13.7,16.7,,28,26,513,77,1024.9,26.9,0
"2019-11-09 08:12:54+00",10.8,12.8,,27.8,64,395,77,1025.01,26.8,0
"2019-11-09 08:17:54+00",11.9,13.9,,27.7,64,427,75,1024.93,26.8,0
"2019-11-09 08:22:54+00",11.5,13.5,,27.8,19,365,101,1024.86,26.7,0
"2019-11-09 08:27:54+00",10.9,11.9,,27.8,42,383,63,1024.89,26.8,0
"2019-11-09 08:32:54+00",12.5,14.5,,27.6,12,506,46,1024.96,26.7,0
"2019-11-09 08:37:54+00",11.9,14.9,,27.7,79,358,112,1025,26.6,0
"2019-11-09 08:42:54+00",9.9,11.9,,27.7,60,280,116,1025.01,26.6,0
"2019-11-09 08:47:54+00",10.1,13.1,,27.5,92,322,87,1024.99,26.6,0
"2019-11-09 08:52:54+00",12.0,14.0,,27.6,129,228,196,1024.98,26.6,0
"2019-11-09 08:57:54+00",12.1,14.1,,27.6,44,516,13,1025.05,26.6,0
"2019-11-09 09:02:54+00",12.9,14.9,,27.5,64,426,101,1024.9,26.6,0
"2019-11-09 09:07:54+00",11.8,13.8,,27.5,82,367,121,1025,26.5,0
"2019-11-09 09:12:54+00",13.2,15.2,,27.5,82,343,146,1025.03,26.5,0
"2019-11-09 09:17:54+00",13.5,15.5,,27.6,78,388,140,1025.07,26.6,0
"2019-11-09 09:22:54+00",11.4,13.4,,27.4,68,188,208,1025.09,26.6,0
"2019-11-09 09:27:54+00",11.7,12.7,,27.2,67,199,206,1025.1,26.5,0
"2019-11-09 09:32:54+00",13.6,15.6,,27.1,14,368,170,1025.17,26.4,0
"2019-11-09 09:37:54+00",13.0,15.0,,27.1,46,344,156,1025.26,26.4,0
"2019-11-09 09:42:54+00",11.0,13.0,,27.1,31,366,106,1025.25,26.3,0
"2019-11-09 09:47:54+00",10.8,13.8,,27.1,42,347,104,1025.36,26.3,0
"2019-11-09 09:52:54+00",11.7,13.7,,27.3,58,425,77,1025.34,26.3,0
"2019-11-09 09:57:54+00",10.6,12.6,,27.4,66,248,144,1025.42,26.3,0
"2019-11-09 10:02:54+00",10.9,13.9,,27.4,63,259,172,1025.49,26.4,0
"2019-11-09 10:07:54+00",10.5,12.5,,27.2,-16,350,115,1025.56,26.4,0
"2019-11-09 10:12:54+00",11.0,13.0,,26.9,-23,361,109,1025.44,26.3,0
"2019-11-09 10:17:54+00",12.2,14.2,,26.8,4,381,125,1025.52,26.2,0
"2019-11-09 10:22:54+00",11.9,13.9,,26.7,-7,401,87,1025.74,26.1,0
"2019-11-09 10:27:54+00",11.5,13.5,,26.7,-23,401,82,1025.69,26,0
"2019-11-09 10:32:54+00",11.6,13.6,,26.7,39,362,119,1025.81,25.9,0
"2019-11-09 10:37:54+00",11.5,13.5,,26.7,46,379,90,1025.77,25.9,0
"2019-11-09 10:42:54+00",11.4,13.4,,26.8,4,396,89,1025.76,25.9,0
"2019-11-09 10:47:54+00",12.2,13.2,,26.9,33,427,93,1025.95,25.9,0
"2019-11-09 10:52:54+00",11.5,13.5,,26.9,37,364,116,1025.93,25.9,0
"2019-11-09 10:57:54+00",9.9,11.9,,26.9,-22,341,95,1025.98,26,0
"2019-11-09 11:02:54+00",11.7,12.7,,26.7,25,461,57,1026.06,25.9,0
"2019-11-09 11:07:54+00",10.8,12.8,,26.7,52,315,123,1026.03,25.8,0
"2019-11-09 11:12:54+00",10.7,12.7,,26.8,33,351,109,1026.16,25.8,0
"2019-11-09 11:17:54+00",10.0,11.0,,26.8,42,367,83,1026.15,25.8,0
"2019-11-09 11:22:54+00",9.7,11.7,,26.8,43,339,85,1026.12,25.8,0
"2019-11-09 11:27:54+00",8.2,9.2,,26.9,62,317,71,1026.03,25.9,0
"2019-11-09 11:32:54+00",8.1,10.1,,26.9,21,330,55,1026.19,25.8,0
"2019-11-09 11:37:54+00",11.9,13.9,,26.8,63,420,90,1026.09,25.8,0
"2019-11-09 11:42:54+00",12.1,14.1,,26.8,97,317,143,1026.09,25.9,0
"2019-11-09 11:47:54+00",10.9,12.9,,26.8,55,365,91,1026.02,25.9,0
"2019-11-09 11:52:54+00",11.8,12.8,,26.8,64,309,123,1026.14,26,0
"2019-11-09 11:57:54+00",10.6,12.6,,26.8,66,284,119,1026.2,26,0
"2019-11-09 12:02:54+00",9.3,10.3,,26.9,117,183,144,1026.11,26.1,0
"2019-11-09 12:07:54+00",10.7,12.7,,27.2,103,303,100,1026.19,26.3,18.1
"2019-11-09 12:12:54+00",11.2,12.2,,27.4,97,368,75,1026.12,26.7,42.4
"2019-11-09 12:17:54+00",9.5,10.5,,27.5,100,228,128,1026.16,27.2,50.4
"2019-11-09 12:22:54+00",11.3,13.3,,27.7,45,413,53,1026.25,27.7,59.5
"2019-11-09 12:27:54+00",11.5,13.5,,27.9,3,477,12,1026.19,28.4,69.4
"2019-11-09 12:32:54+00",9.8,11.8,,28.1,39,367,53,1026.15,28.9,79
"2019-11-09 12:37:54+00",11.9,13.9,,28.3,-134,836,-188,1026.16,29.3,89.1
"2019-11-09 12:42:54+00",11.4,13.4,,28.5,-29,558,-27,1026.27,29.8,98.8
"2019-11-09 12:47:54+00",9.9,11.9,,28.9,-63,531,-32,1026.34,30.4,108.1
"2019-11-09 12:52:54+00",9.8,11.8,,29.1,-118,623,-89,1026.28,31.1,118.2
"2019-11-09 12:57:54+00",11.8,12.8,,29.3,-265,944,-276,1026.34,31.6,127.6
"2019-11-09 13:02:54+00",9.8,12.8,,29.7,-137,613,-94,1026.42,32,136.6
"2019-11-09 13:07:54+00",10.9,11.9,,30,-233,845,-214,1026.27,32.4,146.6
"2019-11-09 13:12:54+00",9.6,11.6,,30.3,-137,567,-61,1026.53,33.1,155.1
"2019-11-09 13:17:54+00",8.8,10.8,,30.8,-201,775,-224,1026.44,33.8,164.3
"2019-11-09 13:22:54+00",10.9,11.9,,31.1,-374,1085,-344,1026.32,34.2,173.4
"2019-11-09 13:27:54+00",9.6,11.6,,31.4,-249,804,-212,1026.29,34.8,181.7
"2019-11-09 13:32:54+00",10.1,12.1,,31.9,-320,1030,-333,1026.33,35.3,190.1
"2019-11-09 13:37:54+00",11.1,12.1,,32.4,-481,1517,-574,1026.35,35.4,199.7
"2019-11-09 13:42:54+00",9.5,11.5,,32.7,-384,1192,-411,1026.25,35.5,208.8
"2019-11-09 13:47:54+00",8.6,10.6,,33,-337,1045,-352,1026.35,35.9,216.3
"2019-11-09 13:52:54+00",2.0,7.0,,33.5,-109,758,-233,1026.16,36.2,224.5
"2019-11-09 13:57:54+00",9.7,11.7,,33.7,-269,1156,-402,1026.11,36.5,226.9
"2019-11-09 14:02:54+00",8.3,11.3,,33.8,-230,978,-318,1026.09,36.6,229.1
"2019-11-09 14:07:54+00",7.4,10.4,,34.1,-451,1242,-464,1026.07,37,240.3
"2019-11-09 14:12:54+00",7.3,10.3,,34.5,-112,836,-263,1026.25,37.5,248.5
"2019-11-09 14:17:54+00",0.0,0.0,,34.7,60,451,-59,1026.02,37.6,239.7
"2019-11-09 14:22:54+00",0.0,0.0,,34.7,-381,1197,-416,1026.11,37.8,254.7
"2019-11-09 14:27:54+00",0.0,0.0,,35.1,-275,912,-282,1025.99,38.1,241.6
"2019-11-09 14:32:54+00",0.0,0.0,,35.3,-123,684,-192,1026.1,38.3,267.7
"2019-11-09 14:37:54+00",0.0,0.0,,35.5,-105,758,-175,1026.09,38.5,235.7
"2019-11-09 14:42:54+00",0.0,0.0,,36,-4,739,-205,1026.25,38.9,264.2
"2019-11-09 14:47:54+00",0.0,0.0,,36.5,107,249,19,1026.1,39.4,289
"2019-11-09 14:52:54+00",0.0,0.0,,36.7,2,592,-118,1026.14,40,295.4
"2019-11-09 14:57:54+00",0.0,0.0,,36.9,-31,522,-113,1026.06,40.4,295.1
"2019-11-09 15:02:54+00",0.0,0.0,,37.2,87,321,-22,1026.02,41,301.7
"2019-11-09 15:07:54+00",0.0,0.0,,37.6,180,271,-62,1026,41.6,289.1
"2019-11-09 15:12:54+00",0.0,0.0,,37.4,232,415,-98,1025.91,41.4,300
"2019-11-09 15:17:54+00",0.0,0.0,,37.5,165,140,-21,1025.77,41.6,306.1
"2019-11-09 15:22:54+00",0.0,0.0,,37.7,192,353,-114,1025.92,41.9,310
"2019-11-09 15:27:54+00",0.0,0.0,,38,200,273,-56,1025.83,42.5,303.1
"2019-11-09 15:32:54+00",0.0,0.0,,37.8,142,141,4,1025.77,42.4,314.4
"2019-11-09 15:37:54+00",0.5,1.5,,37.9,187,354,-51,1025.83,42.7,315.5
"2019-11-09 15:42:54+00",0.0,0.0,,38.1,122,602,-196,1025.78,42.5,319.9
"2019-11-09 15:47:54+00",0.0,0.0,,38.2,137,115,32,1025.77,42.4,321
"2019-11-09 15:52:54+00",0.0,0.0,,38.2,201,223,-13,1025.75,42.6,277.8
"2019-11-09 15:57:54+00",8.3,10.3,,38.5,219,311,-37,1025.8,43,314.5
"2019-11-09 16:02:54+00",0.0,0.0,,38.6,125,517,-112,1025.72,43.1,326.9
"2019-11-09 16:07:54+00",0.0,0.0,,38.5,186,348,-46,1025.83,42.9,320.8
"2019-11-09 16:12:54+00",0.0,0.0,,38.7,151,232,-27,1025.8,42.8,328.2
"2019-11-09 16:17:54+00",0.0,0.0,,38.8,233,142,-1,1025.69,43,330.9
"2019-11-09 16:22:54+00",0.0,0.0,,39.1,17,636,-220,1025.54,43.4,334.2
"2019-11-09 16:27:54+00",0.0,0.0,,39.1,-43,854,-323,1025.49,43.8,300.1
"2019-11-09 16:32:54+00",0.0,0.0,,39.1,164,250,-42,1025.53,43.6,277.9
"2019-11-09 16:37:54+00",0.0,0.0,,39.2,269,20,33,1025.42,43.4,273.8
"2019-11-09 16:42:54+00",0.0,0.0,,39.3,210,-90,10,1025.47,43.2,236.6
"2019-11-09 16:47:54+00",0.0,0.0,,39.9,107,-43,73,1025.33,43.1,234
"2019-11-09 16:52:54+00",0.0,0.0,,39.5,284,154,-49,1025.23,43.5,201.5
"2019-11-09 16:57:54+00",0.0,0.0,,39.4,236,-209,103,1025.2,43,167.2
"2019-11-09 17:02:54+00",0.0,0.0,,39.4,106,277,-92,1025.15,42.9,199.6
"2019-11-09 17:07:54+00",0.0,0.0,,39.5,56,11,9,1025.16,43.2,178.4
"2019-11-09 17:12:54+00",0.0,0.0,,39.9,124,59,-26,1025.03,43.2,228.6
"2019-11-09 17:17:54+00",0.0,0.0,,39.7,155,206,-97,1024.88,43.2,171
"2019-11-09 17:22:54+00",0.0,0.0,,39.8,131,125,14,1024.76,43.2,190.7
"2019-11-09 17:27:54+00",0.0,0.0,,40.3,171,86,54,1024.7,43.7,207.8
"2019-11-09 17:32:54+00",0.0,0.0,,40.3,81,-111,16,1024.5,43.2,170.4
"2019-11-09 17:37:54+00",0.0,0.0,,40.2,164,116,-33,1024.46,43.1,145.3
"2019-11-09 17:42:54+00",0.0,0.0,,40.2,206,-166,3,1024.33,42.8,141.3
"2019-11-09 17:47:54+00",0.0,0.0,,40.1,224,8,-48,1024.29,42.4,139.4
"2019-11-09 17:52:54+00",0.0,0.0,,40.3,264,-266,68,1024.3,42.4,132.3
"2019-11-09 17:57:54+00",0.0,0.0,,40.7,214,-133,75,1024.24,42.4,204.3
"2019-11-09 18:02:54+00",0.0,0.0,,40.6,113,282,-163,1024.06,42.9,130.4
"2019-11-09 18:07:54+00",0.0,0.0,,40.6,164,-237,27,1024.13,43,268.6
"2019-11-09 18:12:54+00",0.0,0.0,,41,32,-87,19,1023.9,43.4,198.2
"2019-11-09 18:17:54+00",0.0,0.0,,41.5,75,-227,-21,1023.76,43.7,288.6
"2019-11-09 18:22:54+00",0.0,0.0,,41.6,79,-139,-21,1023.82,43.8,215.1
"2019-11-09 18:27:54+00",0.0,0.0,,41.9,40,-300,59,1023.73,43.9,127.3
"2019-11-09 18:32:54+00",0.0,0.0,,41.6,205,-269,21,1023.58,43.7,282.5
"2019-11-09 18:37:54+00",0.0,0.0,,41.6,36,-258,0,1023.59,43.3,170.2
"2019-11-09 18:42:54+00",0.0,0.0,,41.5,-113,-313,35,1023.51,43.1,121.9
"2019-11-09 18:47:54+00",0.0,0.0,,41.6,163,-350,22,1023.52,43.4,171
"2019-11-09 18:52:54+00",0.0,0.0,,41.6,99,-258,33,1023.44,43.1,244.6
"2019-11-09 18:57:54+00",0.0,0.0,,41.4,185,-314,45,1023.52,43.4,98.4
"2019-11-09 19:02:54+00",0.0,0.0,,41.2,211,-232,0,1023.36,43,101.2
"2019-11-09 19:07:54+00",0.0,0.0,,41.6,191,-178,30,1023.39,43.3,250.8
"2019-11-09 19:12:54+00",0.0,0.0,,41.6,251,-336,45,1023.27,43.3,180.7
"2019-11-09 19:17:54+00",0.0,0.0,,41.6,27,-232,-8,1023.25,43.1,219.5
"2019-11-09 19:22:54+00",0.0,0.0,,42.1,86,-129,-13,1023.1,43.5,93.1
"2019-11-09 19:27:54+00",0.0,0.0,,41.8,140,-398,35,1023.06,42.9,197.9
"2019-11-09 19:32:54+00",0.0,0.0,,42,126,-322,27,1022.96,43.1,179
"2019-11-09 19:37:54+00",0.0,0.0,,42,72,-327,27,1022.97,43,115.5
"2019-11-09 19:42:54+00",0.0,0.0,,41.7,2,-311,-6,1022.93,42.5,46.4
"2019-11-09 19:47:54+00",0.0,0.0,,41.7,116,-377,-3,1022.97,42.3,163.5
"2019-11-09 19:52:54+00",0.0,0.0,,42,101,-362,34,1023.01,42.7,95.7
"2019-11-09 19:57:54+00",0.0,0.0,,42.2,-7,-116,16,1022.84,42.9,140.5
"2019-11-09 20:02:54+00",0.0,0.0,,42.5,56,-140,34,1022.74,43.1,135.1
"2019-11-09 20:07:54+00",0.0,0.0,,42.5,224,-463,94,1022.61,43.3,56.5
"2019-11-09 20:12:54+00",0.0,0.0,,42.5,104,-293,52,1022.66,43.1,100.4
"2019-11-09 20:17:54+00",0.0,0.0,,42.5,100,-347,16,1022.5,43.1,104.6
"2019-11-09 20:22:54+00",0.0,0.0,,42.6,75,-127,28,1022.52,43,94.2
"2019-11-09 20:27:54+00",0.0,0.0,,42.7,15,-251,-13,1022.43,43.1,80.7
"2019-11-09 20:32:54+00",0.0,0.0,,42.7,66,-215,6,1022.4,43,77.3
"2019-11-09 20:37:54+00",0.0,0.0,,42.6,203,-353,84,1022.36,43.1,49
"2019-11-09 20:42:54+00",0.0,0.0,,42.5,269,-373,86,1022.32,43,52.4
"2019-11-09 20:47:54+00",0.0,0.0,,42.5,45,-206,11,1022.32,43,33.5
"2019-11-09 20:52:54+00",0.0,0.0,,43,-69,-95,7,1022.57,43.2,34
"2019-11-09 20:57:54+00",0.0,0.0,,43.1,50,-190,65,1022.43,43.4,3.4
"2019-11-09 21:02:54+00",0.0,0.0,,42.6,-39,-101,-28,1022.51,42.8,0
"2019-11-09 21:07:54+00",0.0,0.0,,42.4,-2,-112,4,1022.46,42.5,0.1
"2019-11-09 21:12:54+00",0.0,0.0,,42.4,-38,-75,2,1022.48,42.3,0.4
"2019-11-09 21:17:54+00",0.0,0.0,,42.6,-9,-127,0,1022.53,42.4,1.3
"2019-11-09 21:22:54+00",0.0,0.0,,42.6,-156,-247,50,1022.42,42.4,0
"2019-11-09 21:27:54+00",0.0,0.0,,42.2,213,-1275,600,1022.28,42.7,0
"2019-11-09 21:32:54+00",0.0,0.0,,41.8,538,-1913,949,1022.36,42.5,0
"2019-11-09 21:37:54+00",0.0,0.0,,41.5,179,-1132,557,1022.31,42.2,0
"2019-11-09 21:42:54+00",0.0,0.0,,41.4,429,-1675,835,1022.35,41.8,0
"2019-11-09 21:47:54+00",0.0,0.0,,41.2,489,-1798,883,1022.39,41.5,0
"2019-11-09 21:52:54+00",0.0,0.0,,41,-23,-814,321,1022.33,41.2,0
"2019-11-09 21:57:54+00",0.0,0.0,,40.9,44,-983,402,1022.18,41,0
"2019-11-09 22:02:54+00",0.0,0.0,,41,-122,-516,180,1022.29,40.8,0
"2019-11-09 22:07:54+00",0.0,0.0,,40.9,185,-1185,539,1022.17,40.7,0
"2019-11-09 22:12:54+00",0.0,0.0,,41,539,-1933,967,1022.21,40.7,0
"2019-11-09 22:17:54+00",0.0,0.0,,41,128,-1267,536,1022.18,40.6,0
"2019-11-09 22:22:54+00",0.0,0.0,,41.1,21,-858,369,1022.17,40.7,0
"2019-11-09 22:27:54+00",0.0,0.0,,41,228,-1276,631,1022.22,40.6,0
"2019-11-09 22:32:54+00",0.0,0.0,,41.1,-4,-853,342,1022.07,40.6,0
"2019-11-09 22:37:54+00",0.0,0.0,,41.1,-84,-617,239,1021.98,40.7,0
"2019-11-09 22:42:54+00",0.0,0.0,,41.2,88,-1071,463,1021.98,40.7,0
"2019-11-09 22:47:54+00",0.0,0.0,,41.2,243,-1344,629,1021.82,40.8,0
"2019-11-09 22:52:54+00",0.0,0.0,,41.1,205,-1160,570,1021.84,40.7,0
"2019-11-09 22:57:54+00",0.0,0.0,,41.2,599,-1966,998,1021.93,40.7,0
"2019-11-09 23:02:54+00",0.0,0.0,,41.1,258,-1300,630,1021.94,40.7,0
"2019-11-09 23:07:54+00",0.0,0.0,,41.1,-36,-628,308,1022,40.7,0
"2019-11-09 23:12:54+00",0.0,0.0,,41,980,-2694,1469,1021.96,40.5,0
"2019-11-09 23:17:54+00",0.0,0.0,,40.9,1403,-3512,1927,1021.99,40.5,0
"2019-11-09 23:22:54+00",0.0,0.0,,40.7,769,-2241,1265,1022.05,40.5,0
"2019-11-09 23:27:54+00",0.0,0.0,,40.5,572,-1829,1064,1022.16,40.4,0
"2019-11-09 23:32:54+00",0.0,0.0,,40.4,461,-1567,909,1022.05,40.3,0
"2019-11-09 23:37:54+00",0.0,0.0,,40.5,620,-1881,1092,1021.99,40.2,0
"2019-11-09 23:42:54+00",0.0,0.0,,40.5,663,-1912,1081,1021.89,40.1,0
"2019-11-09 23:47:54+00",0.0,0.0,,40.4,410,-1474,855,1021.86,40.1,0
"2019-11-09 23:52:54+00",0.0,0.0,,40.4,294,-1219,731,1021.79,39.9,0
"2019-11-09 23:57:54+00",0.0,0.0,,40.4,242,-1108,661,1021.74,39.9,0
